Vertical_Velocity
-1 0 -1 1 2 2 1 3 1 1 2 1 2 -2 1 1 0 1 -0 -1 -0 1 1 2 1 -3 1 2 2 1 0 0 -0 -0 0 -0 0 3 7 3 -0 0 0
1 -3 1 -1 -1 -1 1 1 1 3 -1 2 2 2 4 1 -0 -1 0 2 1 1 2 2 2 0 -1 0 -3 -1 1 0 1 0 -0 -1 -0 -0 2 2 8 7 8
2 4 -1 -1 2 -0 -0 -0 3 -1 2 -1 2 5 7 4 1 -2 -1 1 3 3 1 1 -1 -1 -1 -1 0 0 0 -1 -1 -1 -0 -0 -3 -2 -0 -1 -0 1 8
1 4 -0 3 4 1 1 0 -1 0 -1 1 2 0 2 1 2 2 2 3 2 1 -1 0 -0 1 0 -1 -1 -3 0 1 1 0 0 -1 0 1 -2 -1 -5 4 -0
-1 -1 -1 -0 4 1 -0 5 -2 -0 2 -2 1 -1 -1 -5 4 4 2 -1 -1 -1 2 6 6 3 2 -0 -2 -1 -1 -0 1 2 1 0 -0 -0 1 1 -3 -4 6
-2 1 -4 -1 1 -2 -2 1 2 2 -0 1 0 -1 -1 -1 -2 -2 -2 -4 2 5 5 2 1 -1 1 3 0 -1 -1 -1 -1 -3 -1 -2 -3 -1 -2 -0 3 -0 -4
0 0 -2 -1 0 1 -2 -0 -3 3 1 2 2 -3 -2 -3 -3 -3 -2 -1 1 0 -0 -1 1 2 -0 1 3 1 -1 -3 -3 -3 -2 -1 1 -3 1 -1 -1 0 3
2 1 -1 -0 0 1 1 4 -0 2 -2 0 0 1 0 1 -4 -4 -3 -3 -1 0 -0 1 1 -4 -3 0 0 1 -0 -2 -2 -1 1 -1 -1 -1 -1 -0 -3 -3 -3
1 -1 1 -1 -1 -0 1 2 2 1 3 3 -0 -0 -1 -3 3 -0 -2 -2 -1 -1 -1 -0 3 2 1 -3 -0 -0 -2 -1 0 0 -0 -2 -2 -2 -1 -1 -1 -1 1
3 4 -1 1 2 -1 -0 -0 1 5 2 4 1 -1 -1 2 0 -4 -2 -2 0 -0 -2 0 -2 1 3 1 3 7 -4 -3 -2 -6 -6 -6 -4 -3 -6 -1 -3 -3 -2
-1 3 5 -0 2 -3 -1 4 0 1 -0 -0 -1 5 4 3 2 -0 -2 -1 -2 -3 -2 -2 -3 -5 -3 -1 -4 2 -1 -3 -3 -5 -8 -7 -5 -5 -2 -3 -5 -4 -3
1 -0 1 3 -1 9 2 -1 1 3 2 1 5 1 -4 -2 4 3 1 1 -4 -2 -1 -2 1 -2 -3 -2 -3 -5 -2 3 2 -3 -5 -11 -6 -11 -5 -8 -5 -4 -4
6 6 0 -2 3 1 6 6 6 1 -1 -1 1 2 4 3 0 -1 -2 1 1 -1 -1 -1 2 -5 -2 -5 0 -5 -5 -4 1 -4 -3 -6 -5 -6 -0 -4 -1 -5 1
-7 1 8 6 -1 2 2 1 3 5 5 5 2 2 6 2 1 2 5 -0 1 1 2 -2 -4 -1 -1 -4 0 -1 -3 -5 -3 -5 -4 -11 -11 -5 -1 -10 -4 -4 1
2 0 -2 1 7 5 3 1 1 2 4 4 2 3 3 3 8 -2 -4 3 -0 3 6 5 1 -3 -0 -0 0 -3 -7 -6 -3 -4 -6 -5 -5 -5 3 -7 -3 -5 2
3 -3 3 3 0 0 3 9 0 2 7 2 2 5 2 4 4 6 2 -3 0 6 -5 1 4 -3 -4 1 -5 -1 -5 -4 -8 -3 -10 -5 -9 -1 -5 -1 -2 -4 -0
-1 1 -0 1 3 -0 6 3 7 6 -1 2 6 5 3 5 2 -3 -2 -1 1 4 -1 -0 2 -5 0 0 2 -6 -3 -8 -4 -4 -6 -3 -4 -11 -5 0 -1 -2 -2
-0 -0 -1 3 2 4 4 4 4 -2 1 6 -4 -3 -1 2 8 -7 -0 -1 -0 3 2 1 1 -7 2 -1 2 -3 -3 -2 -4 -5 -3 -3 2 -8 -4 -1 -1 -1 -1
0 -1 0 2 5 3 2 1 5 2 -5 -10 -1 -1 -11 -13 -2 -1 5 2 1 4 3 2 -1 -4 -2 3 -5 -5 0 1 -6 -2 -5 -2 -5 -4 -8 -1 -2 -2 0
-1 4 2 2 7 5 -3 5 -1 3 -2 0 -5 1 6 2 2 1 2 3 0 5 1 1 1 -8 2 1 -4 -3 0 -5 -2 -3 -6 -5 3 -3 -9 -3 -1 2 -2
1 1 5 6 5 4 3 11 6 4 2 -0 6 3 0 3 -3 -2 3 2 2 1 0 3 -0 -3 1 -2 -2 0 -0 -5 -2 -3 -4 3 6 0 -6 -4 2 4 -1
-2 11 -1 8 7 4 0 -2 -5 -0 1 8 3 4 1 -9 9 3 4 4 -2 -1 2 5 -4 1 2 -3 -2 1 -5 -3 0 -4 -0 7 -10 4 -3 -4 -2 -2 -2
1 13 4 1 3 8 3 -8 -0 -2 9 5 4 2 -9 4 4 2 6 0 -2 -0 3 -2 0 1 0 -1 1 -0 -2 -3 3 -5 -1 3 -3 4 -1 -3 -3 -2 -1
1 8 -0 -5 5 3 -0 9 7 9 6 8 -0 1 2 -5 4 3 2 2 -1 2 -1 0 3 2 2 0 2 -0 -5 -2 2 -3 0 -8 1 3 -1 -1 -3 -1 -1
13 6 1 -2 6 6 2 7 10 5 10 2 -6 4 -4 4 0 2 2 -0 -3 0 1 -0 3 2 0 1 1 2 -7 -0 2 -1 -3 1 2 1 -3 0 -3 -2 -0
3 4 2 -0 -0 6 1 7 8 9 9 -6 6 5 3 4 1 3 3 0 -3 0 2 -1 1 1 2 3 1 0 -2 -0 -0 3 0 -8 2 3 0 -0 -2 -2 -2
Height
3166 3165 3162 3160 3158 3158 3157 3156 3156 3157 3158 3159 3160 3160 3161 3162 3161 3161 3162 3163 3163 3164 3164 3164 3164 3164 3165 3165 3165 3166 3166 3167 3167 3167 3168 3168 3168 3169 3171 3172 3173 3173 3174
3161 3160 3158 3156 3154 3153 3152 3151 3151 3151 3151 3153 3154 3155 3156 3155 3155 3156 3157 3158 3157 3157 3157 3157 3159 3158 3158 3159 3158 3158 3160 3160 3161 3162 3162 3163 3164 3164 3165 3165 3166 3167 3168
3156 3156 3154 3152 3149 3148 3147 3147 3147 3146 3146 3147 3148 3149 3150 3148 3148 3149 3151 3151 3151 3151 3151 3151 3152 3153 3152 3152 3151 3152 3152 3153 3153 3154 3155 3155 3156 3157 3159 3159 3160 3160 3160
3152 3151 3149 3148 3146 3144 3143 3143 3142 3143 3143 3143 3143 3144 3142 3141 3142 3143 3146 3146 3146 3145 3144 3146 3148 3149 3147 3146 3146 3146 3146 3146 3146 3147 3148 3148 3148 3148 3149 3150 3151 3152 3153
3147 3146 3145 3144 3142 3141 3140 3140 3139 3138 3139 3138 3139 3139 3137 3137 3139 3139 3140 3140 3140 3140 3141 3143 3144 3144 3143 3142 3142 3142 3141 3141 3141 3141 3141 3141 3141 3141 3141 3141 3141 3142 3144
3142 3141 3140 3140 3138 3137 3136 3136 3135 3135 3135 3135 3135 3134 3134 3134 3134 3134 3135 3135 3135 3137 3138 3138 3138 3138 3137 3136 3135 3135 3135 3135 3135 3134 3134 3133 3133 3132 3132 3132 3133 3133 3134
3137 3136 3136 3135 3134 3133 3132 3132 3132 3132 3132 3131 3131 3129 3130 3129 3130 3131 3132 3131 3131 3132 3132 3132 3133 3133 3133 3131 3130 3129 3128 3127 3126 3126 3125 3124 3124 3123 3122 3122 3122 3123 3123
3131 3130 3130 3130 3130 3128 3127 3127 3128 3127 3128 3127 3127 3126 3125 3125 3126 3128 3128 3127 3126 3126 3126 3127 3128 3127 3126 3124 3123 3123 3121 3118 3117 3116 3115 3114 3113 3112 3112 3111 3110 3110 3110
3125 3124 3124 3125 3124 3124 3123 3123 3123 3123 3123 3122 3122 3122 3119 3119 3121 3121 3122 3123 3121 3120 3120 3120 3121 3120 3119 3117 3116 3115 3113 3112 3109 3107 3105 3103 3101 3099 3098 3097 3096 3096 3095
3118 3119 3118 3120 3119 3118 3118 3118 3119 3118 3119 3119 3118 3118 3117 3116 3115 3116 3116 3116 3115 3114 3113 3113 3112 3111 3110 3109 3108 3106 3105 3101 3099 3096 3093 3090 3087 3085 3083 3081 3080 3078 3077
3108 3110 3111 3113 3113 3112 3112 3113 3114 3114 3113 3113 3114 3114 3112 3111 3111 3110 3109 3109 3108 3107 3107 3106 3104 3102 3100 3098 3095 3094 3093 3091 3090 3088 3084 3081 3076 3071 3066 3062 3062 3063 3062
3098 3100 3102 3104 3106 3105 3105 3105 3106 3108 3107 3107 3108 3107 3107 3106 3105 3105 3103 3102 3101 3101 3101 3100 3099 3097 3096 3092 3089 3087 3085 3083 3082 3079 3075 3070 3065 3058 3053 3051 3048 3046 3046
3089 3089 3092 3094 3096 3097 3097 3097 3098 3099 3100 3100 3100 3101 3101 3100 3099 3098 3096 3094 3093 3093 3094 3094 3092 3090 3088 3084 3083 3080 3076 3075 3074 3068 3063 3058 3052 3045 3040 3034 3032 3031 3031
3080 3081 3083 3085 3086 3087 3088 3089 3090 3091 3092 3092 3092 3093 3093 3093 3093 3092 3091 3089 3086 3085 3087 3088 3086 3084 3082 3079 3078 3073 3070 3067 3065 3060 3055 3049 3043 3036 3028 3023 3020 3019 3019
3072 3073 3075 3075 3076 3079 3080 3080 3080 3081 3083 3084 3084 3084 3084 3084 3084 3086 3086 3085 3083 3081 3080 3081 3080 3077 3075 3072 3071 3067 3066 3063 3060 3056 3050 3044 3036 3026 3019 3013 3012 3011 3010
3063 3063 3064 3065 3066 3067 3069 3070 3072 3073 3074 3075 3076 3076 3076 3077 3076 3077 3079 3079 3079 3075 3073 3073 3072 3068 3066 3065 3063 3062 3061 3059 3056 3051 3045 3037 3027 3019 3013 3007 3005 3004 3003
3054 3055 3055 3055 3055 3056 3061 3062 3063 3064 3066 3066 3067 3069 3069 3068 3067 3067 3071 3071 3072 3069 3067 3068 3066 3062 3060 3058 3059 3058 3057 3054 3050 3046 3039 3031 3022 3013 3008 3003 2999 2999 2997
3042 3044 3046 3046 3046 3047 3050 3053 3053 3056 3057 3057 3057 3058 3059 3061 3058 3059 3063 3063 3063 3063 3061 3061 3058 3056 3051 3053 3052 3052 3049 3046 3043 3039 3032 3027 3019 3008 3004 2999 2996 2994 2993
3030 3031 3034 3036 3037 3037 3041 3043 3043 3044 3045 3046 3046 3049 3051 3053 3051 3052 3056 3055 3055 3056 3055 3054 3051 3048 3046 3047 3047 3044 3043 3040 3037 3034 3029 3025 3018 3008 3002 2997 2993 2990 2989
3022 3021 3022 3024 3025 3026 3028 3031 3034 3034 3036 3039 3042 3043 3041 3043 3042 3046 3048 3049 3050 3050 3048 3047 3045 3042 3040 3042 3041 3040 3038 3036 3033 3030 3027 3022 3016 3011 3003 2998 2992 2987 2986
3014 3014 3013 3013 3015 3015 3016 3022 3025 3026 3031 3033 3032 3034 3033 3034 3037 3040 3041 3042 3043 3043 3041 3040 3038 3036 3036 3036 3036 3034 3033 3032 3028 3027 3023 3018 3014 3011 3005 2999 2994 2990 2986
3005 3006 3005 3004 3005 3006 3009 3012 3017 3021 3023 3023 3024 3024 3026 3028 3032 3034 3035 3035 3036 3036 3034 3034 3032 3030 3031 3031 3030 3028 3029 3027 3025 3024 3020 3016 3013 3010 3005 3000 2996 2992 2989
2996 2998 2997 2996 2996 2998 2999 3005 3009 3012 3013 3015 3016 3017 3020 3023 3026 3028 3029 3029 3030 3028 3029 3028 3026 3026 3026 3026 3024 3025 3025 3024 3022 3020 3018 3015 3011 3008 3005 3001 2997 2995 2992
2988 2989 2990 2989 2989 2990 2993 2995 2999 3002 3004 3007 3008 3012 3016 3018 3021 3022 3023 3023 3024 3024 3023 3022 3022 3023 3023 3021 3021 3022 3021 3020 3018 3017 3015 3013 3010 3007 3004 3001 2998 2995 2993
2981 2982 2982 2981 2981 2984 2986 2989 2992 2995 2998 2998 3002 3007 3011 3014 3014 3016 3018 3020 3019 3019 3018 3018 3019 3019 3018 3017 3019 3018 3018 3016 3015 3014 3013 3010 3008 3006 3003 3000 2998 2996 2994
2975 2974 2973 2974 2975 2977 2980 2983 2986 2989 2990 2993 2999 3003 3007 3009 3009 3011 3014 3014 3014 3014 3014 3015 3016 3015 3014 3015 3015 3014 3014 3013 3011 3010 3010 3009 3006 3004 3002 2999 2997 2995 2994